Location: Hochstatterhof
(48.7256°N, 10.3487°E)
Time: 22:03:08
(UTC+00:00)

ATLAS 2AS CENTAUR R/B - Pass Details

Date: 26 September 2023
Orbit: 1000 x 1211 km, 63.7° (Epoch: 02 December)

Event Time Altitude Azimuth Distance (km) Brightness Sun altitude
Exits shadow 01:45:48 33° 144° (SE) 1,886 3.8 -31.8°
Maximum altitude 01:47:35 37° 116° (ESE) 1,747 3.9 -31.6°
Drops below altitude 10° 01:54:08 10° 52° (NE) 3,046 6.0 -30.8°
Sets 01:56:59 0° 45° (NE) 3,978 6.9 -30.4°
